Starlink 2736

operational
NORAD ID: 48640 Int'l Des: 2021-044 Owner: SPXS Country: US Constellation: starlink
LEOCIRCULARSTARLINK_TYPE

Starlink 2736について

説明を読み込み中...

リアルタイム位置

3D地球を読み込み中...

次回通過

高度履歴

Altitude vs Time

uPlot chart will show altitude changes over time

軌道要素

1 48640U 21044C 25258.21649838 .00001054 00000-0 89679-4 0 9999
2 48640 53.0539 184.6281 0001593 93.4713 266.6459 15.06395621237327
Epoch: Sep 15, 2025 • Age: 20 hours

現在のステータス

高度 566.1 km
速度 7.58 km/s
衛星直下点 -51.57°S, 54.41°E
打ち上げ日 May 26, 2021
運用期間 4.3 years
タイプ internet

技術仕様

分類 Payload
質量 260.00 kg
乾燥質量 248.00 kg
総質量 260.00 kg
長さ 0.20 m
直径 2.80 m
スパン 9.00 m
形状 Box + pan
製造者 SPXS
バスタイプ Starlink
フェーズステータス In Orbit
所有者/国 SPXS/US

大規模コンステレーション

Loading constellations...